Location: Bangkok
(13.7500°N, 100.5170°E)
Time: 12:28:22
(UTC+07:00)

Hubble Space Telescope - Visible Passes

Search period start: 01 June 2016 00:00
Search period end: 11 June 2016 00:00
Orbit: 539 x 543 km, 28.5° (Epoch: 31 May)

Date Brightness Start Highest point End Pass type
(mag) Time Alt. Az. Time Alt. Az. Time Alt. Az.
01 Jun 2.2 19:01:05 10° W 19:04:42 29° SSW 19:08:20 10° SSE visible
08 Jun 3.1 04:23:35 12° SSE 04:24:42 13° SSE 04:26:47 10° ESE visible
09 Jun 2.7 04:14:33 19° SSE 04:15:01 19° SSE 04:17:58 10° ESE visible
10 Jun 2.3 04:05:29 26° SE 04:05:29 26° SE 04:08:49 10° E visible
